Location: Dziadowski
(50.3833°N, 20.0333°E)
Time: 14:32:33
(UTC+00:00)

Cosmos 962 Rocket - Visible Passes

Search period start: 19 April 2026 00:00
Search period end: 29 April 2026 00:00
Orbit: 949 x 1000 km, 82.9° (Epoch: 19 April)

Date Brightness Start Highest point End Pass type
(mag) Time Alt. Az. Time Alt. Az. Time Alt. Az.
19 Apr 4.6 18:25:03 10° S 18:31:16 85° W 18:37:28 10° N visible
19 Apr 7.2 20:13:30 10° W 20:17:36 18° WNW 20:21:42 10° NNW visible
20 Apr 5.4 18:50:16 10° SSW 18:56:18 53° WNW 19:02:19 10° N visible
20 Apr 7.5 20:41:33 10° WNW 20:43:16 11° NW 20:44:58 10° NW visible
21 Apr 6.3 19:16:02 10° SW 19:21:31 33° WNW 19:27:01 10° N visible
22 Apr 8.0 02:37:31 10° NE 02:39:08 11° NE 02:40:45 10° ENE visible
22 Apr 7.1 19:42:24 10° WSW 19:46:55 21° WNW 19:51:26 10° NNW visible
23 Apr 5.2 18:19:39 10° SSW 18:25:46 61° WNW 18:31:51 10° N visible
23 Apr 7.5 20:09:48 10° W 20:12:31 13° NW 20:15:14 10° NNW visible
24 Apr 6.1 18:45:14 10° SW 18:50:55 38° WNW 18:56:36 10° N visible
25 Apr 7.0 19:11:24 10° WSW 19:16:16 24° WNW 19:21:07 10° N visible
26 Apr 7.7 02:30:34 10° NNE 02:34:05 16° ENE 02:37:37 10° E visible
26 Apr 7.5 19:38:24 10° W 19:41:48 15° NW 19:45:12 10° NNW visible
28 Apr 6.9 18:40:28 10° WSW 18:45:37 27° WNW 18:50:46 10° N visible
